When you browse on this site, cookies collect data to enhance your experience and personalize the content and advertising you see.
Visit our Privacy Policy to learn more. By continuing to use the site, you agree to this use of cookies and data.
  • Em Portugal
  • Lista de países
  • Para 7 dias
  • Temperatura da água
  • Mapa do tempo
  • Widgets de tempo
  • user-avatar
    Iniciar Sessão

    Previsão horária em Linares

    Hoje, 12 Novembro, Terça-feira

    Tempo Temperatura Precipitação Vento Pressão Humidade
    00:00 +8°C° 0 mm 1 m/s 725 mmHg 89%
    01:00 +8°C° 0 mm 1 m/s 725 mmHg 89%
    02:00 +8°C° 0 mm 1 m/s 725 mmHg 89%
    03:00 +8°C° 0 mm 1 m/s 724 mmHg 89%
    04:00 +7°C° 0 mm 1 m/s 724 mmHg 87%
    05:00 +7°C° 0 mm 1 m/s 724 mmHg 85%
    06:00 +6°C° 0 mm 1 m/s 724 mmHg 83%
    07:00 +8°C° 0 mm 1 m/s 725 mmHg 74%
    08:00 +9°C° 0 mm 1 m/s 725 mmHg 65%
    09:00 +11°C° 0 mm 1 m/s 725 mmHg 56%
    10:00 +12°C° 0 mm 1 m/s 725 mmHg 52%
    11:00 +13°C° 0 mm 1 m/s 725 mmHg 47%
    12:00 +15°C° 0 mm 1 m/s 725 mmHg 42%
    13:00 +15°C° 0 mm 2 m/s 724 mmHg 42%
    14:00 +15°C° 0 mm 2 m/s 723 mmHg 43%
    15:00 +16°C° 0 mm 2 m/s 723 mmHg 44%
    16:00 +14°C° 0 mm 2 m/s 723 mmHg 51%
    17:00 +13°C° 0 mm 2 m/s 723 mmHg 57%
    18:00 +11°C° 0 mm 1 m/s 724 mmHg 64%
    19:00 +11°C° 0 mm 1 m/s 724 mmHg 66%
    20:00 +10°C° 0 mm 1 m/s 724 mmHg 67%
    21:00 +10°C° 0 mm 1 m/s 724 mmHg 68%
    22:00 +9°C° 0 mm 2 m/s 723 mmHg 68%
    23:00 +8°C° 0 mm 2 m/s 723 mmHg 67%

    Amanhã, 13 Novembro, Quarta-feira

    Tempo Temperatura Precipitação Vento Pressão Humidade
    00:00 +8°C° 0 mm 2 m/s 723 mmHg 66%
    01:00 +9°C° 0 mm 2 m/s 723 mmHg 66%
    02:00 +10°C° 0 mm 3 m/s 722 mmHg 66%
    03:00 +10°C° 0 mm 4 m/s 722 mmHg 66%
    04:00 +10°C° 0 mm 4 m/s 722 mmHg 71%
    05:00 +11°C° 0 mm 4 m/s 722 mmHg 77%
    06:00 +10°C° 0 mm 5 m/s 722 mmHg 82%
    07:00 +10°C° 0 mm 5 m/s 722 mmHg 83%
    08:00 +10°C° 0 mm 6 m/s 722 mmHg 84%
    09:00 +10°C° 0 mm 6 m/s 722 mmHg 85%
    10:00 +11°C° 0 mm 6 m/s 722 mmHg 83%
    11:00 +13°C° 0 mm 5 m/s 722 mmHg 81%
    12:00 +14°C° 0 mm 5 m/s 722 mmHg 79%
    13:00 +14°C° 0 mm 5 m/s 722 mmHg 77%
    14:00 +15°C° 0 mm 4 m/s 722 mmHg 74%
    15:00 +15°C° 0 mm 4 m/s 722 mmHg 72%
    16:00 +16°C° 0.1 mm 3 m/s 722 mmHg 75%
    17:00 +14°C° 0.1 mm 3 m/s 723 mmHg 78%
    18:00 +14°C° 0.1 mm 2 m/s 723 mmHg 81%
    19:00 +14°C° 0 mm 2 m/s 723 mmHg 82%
    20:00 +14°C° 0 mm 2 m/s 723 mmHg 83%
    21:00 +13°C° 0 mm 2 m/s 723 mmHg 84%
    22:00 +13°C° 0 mm 2 m/s 723 mmHg 84%
    23:00 +13°C° 0 mm 2 m/s 723 mmHg 83%

    Depois de amanhã, 14 Novembro, Quinta-feira

    Tempo Temperatura Precipitação Vento Pressão Humidade
    00:00 +13°C° 0 mm 2 m/s 722 mmHg 82%
    01:00 +11°C° 0 mm 3 m/s 722 mmHg 85%
    02:00 +11°C° 0 mm 3 m/s 721 mmHg 88%
    03:00 +10°C° 0 mm 3 m/s 721 mmHg 91%
    04:00 +10°C° 0 mm 4 m/s 721 mmHg 91%
    05:00 +8°C° 0 mm 5 m/s 720 mmHg 91%
    06:00 +7°C° 0 mm 5 m/s 720 mmHg 92%
    07:00 +7°C° 0 mm 5 m/s 720 mmHg 87%
    08:00 +8°C° 0 mm 6 m/s 720 mmHg 82%
    09:00 +8°C° 0 mm 6 m/s 719 mmHg 78%
    10:00 +8°C° 0.3 mm 6 m/s 719 mmHg 79%
    11:00 +8°C° 0.3 mm 7 m/s 719 mmHg 79%
    12:00 +7°C° 0.3 mm 8 m/s 719 mmHg 80%
    13:00 +9°C° 0.4 mm 8 m/s 719 mmHg 72%
    14:00 +9°C° 0.4 mm 8 m/s 718 mmHg 63%
    15:00 +10°C° 0.4 mm 7 m/s 718 mmHg 55%
    16:00 +9°C° 0 mm 7 m/s 719 mmHg 57%
    17:00 +8°C° 0 mm 6 m/s 719 mmHg 60%
    18:00 +8°C° 0 mm 6 m/s 719 mmHg 62%
    19:00 +7°C° 0 mm 5 m/s 719 mmHg 66%
    20:00 +7°C° 0 mm 5 m/s 719 mmHg 71%
    21:00 +6°C° 0 mm 5 m/s 719 mmHg 75%
    22:00 +6°C° 0 mm 5 m/s 719 mmHg 76%
    23:00 +6°C° 0 mm 5 m/s 719 mmHg 77%

    15 Novembro, Sexta-feira

    Tempo Temperatura Precipitação Vento Pressão Humidade
    00:00 +6°C° 0 mm 5 m/s 719 mmHg 78%
    01:00 +5°C° 0 mm 4 m/s 719 mmHg 81%
    02:00 +4°C° 0 mm 4 m/s 719 mmHg 84%
    03:00 +4°C° 0 mm 3 m/s 719 mmHg 87%
    04:00 +4°C° 0 mm 3 m/s 719 mmHg 88%
    05:00 +3°C° 0 mm 3 m/s 719 mmHg 90%
    06:00 +3°C° 0 mm 3 m/s 719 mmHg 92%
    07:00 +3°C° 0 mm 3 m/s 719 mmHg 86%
    08:00 +4°C° 0 mm 3 m/s 720 mmHg 81%
    09:00 +5°C° 0 mm 3 m/s 720 mmHg 76%
    10:00 +5°C° 0 mm 3 m/s 720 mmHg 70%
    11:00 +7°C° 0 mm 3 m/s 720 mmHg 64%
    12:00 +7°C° 0 mm 3 m/s 719 mmHg 59%
    13:00 +7°C° 0 mm 3 m/s 719 mmHg 57%
    14:00 +8°C° 0 mm 2 m/s 719 mmHg 56%
    15:00 +8°C° 0 mm 2 m/s 718 mmHg 54%
    16:00 +8°C° 0 mm 1 m/s 719 mmHg 57%
    17:00 +7°C° 0 mm 1 m/s 719 mmHg 61%
    18:00 +5°C° 0 mm 0 m/s 719 mmHg 64%
    19:00 +5°C° 0 mm 0 m/s 720 mmHg 66%
    20:00 +4°C° 0 mm 0 m/s 720 mmHg 69%
    21:00 +4°C° 0 mm 0 m/s 720 mmHg 71%
    22:00 +3°C° 0 mm 0 m/s 721 mmHg 72%
    23:00 +3°C° 0 mm 0 m/s 721 mmHg 72%

    16 Novembro, Sábado

    Tempo Temperatura Precipitação Vento Pressão Humidade
    00:00 +3°C° 0 mm 0 m/s 721 mmHg 73%
    01:00 +3°C° 0 mm 0 m/s 721 mmHg 75%
    02:00 +2°C° 0 mm 0 m/s 721 mmHg 77%
    03:00 +2°C° 0 mm 0 m/s 721 mmHg 79%
    04:00 +2°C° 0 mm 0 m/s 721 mmHg 80%
    05:00 +1°C° 0 mm 0 m/s 722 mmHg 82%
    06:00 +1°C° 0 mm 0 m/s 722 mmHg 83%
    07:00 +3°C° 0 mm 0 m/s 723 mmHg 77%
    08:00 +4°C° 0 mm 0 m/s 724 mmHg 70%
    09:00 +5°C° 0 mm 0 m/s 724 mmHg 64%
    10:00 +8°C° 0 mm 1 m/s 724 mmHg 59%
    11:00 +9°C° 0 mm 1 m/s 724 mmHg 54%
    12:00 +9°C° 0 mm 2 m/s 724 mmHg 50%
    13:00 +10°C° 0 mm 2 m/s 724 mmHg 48%
    14:00 +10°C° 0 mm 2 m/s 724 mmHg 46%
    15:00 +12°C° 0 mm 2 m/s 724 mmHg 44%
    16:00 +9°C° 0 mm 2 m/s 724 mmHg 50%
    17:00 +7°C° 0 mm 2 m/s 725 mmHg 57%
    18:00 +7°C° 0 mm 1 m/s 725 mmHg 63%
    19:00 +6°C° 0 mm 1 m/s 725 mmHg 65%
    20:00 +6°C° 0 mm 1 m/s 726 mmHg 66%
    21:00 +6°C° 0 mm 1 m/s 726 mmHg 67%
    22:00 +5°C° 0 mm 1 m/s 726 mmHg 69%
    23:00 +5°C° 0 mm 1 m/s 726 mmHg 70%

    17 Novembro, Domingo

    Tempo Temperatura Precipitação Vento Pressão Humidade
    00:00 +5°C° 0 mm 1 m/s 726 mmHg 71%
    01:00 +4°C° 0 mm 1 m/s 725 mmHg 73%
    02:00 +4°C° 0 mm 1 m/s 725 mmHg 74%
    03:00 +4°C° 0 mm 1 m/s 725 mmHg 76%
    04:00 +5°C° 0 mm 1 m/s 725 mmHg 73%
    05:00 +5°C° 0 mm 1 m/s 725 mmHg 71%
    06:00 +6°C° 0 mm 1 m/s 725 mmHg 69%
    07:00 +5°C° 0.1 mm 2 m/s 725 mmHg 70%
    08:00 +5°C° 0.1 mm 2 m/s 725 mmHg 71%
    09:00 +6°C° 0.1 mm 2 m/s 725 mmHg 71%
    10:00 +6°C° 0.1 mm 2 m/s 724 mmHg 72%
    11:00 +6°C° 0.1 mm 2 m/s 723 mmHg 73%
    12:00 +7°C° 0.1 mm 2 m/s 723 mmHg 74%
    13:00 +7°C° 0.5 mm 2 m/s 722 mmHg 79%
    14:00 +7°C° 0.5 mm 2 m/s 721 mmHg 84%
    15:00 +7°C° 0.5 mm 2 m/s 721 mmHg 88%
    16:00 +7°C° 1.3 mm 2 m/s 721 mmHg 91%
    17:00 +7°C° 1.3 mm 2 m/s 721 mmHg 94%
    18:00 +8°C° 1.3 mm 2 m/s 721 mmHg 96%
    19:00 +7°C° 0.2 mm 3 m/s 721 mmHg 95%
    20:00 +7°C° 0.2 mm 3 m/s 722 mmHg 94%
    21:00 +7°C° 0.2 mm 3 m/s 722 mmHg 93%
    22:00 +5°C° 0 mm 3 m/s 722 mmHg 92%
    23:00 +5°C° 0 mm 3 m/s 722 mmHg 91%
    Mostrar mais